This is the latest recevied weather packets stored in our database for station/object N7TUG-8. If no packets are shown the sender has not sent any weather packets the latest 10 day(s).
| Time | Temp. | Humidity | Pressure | Rain* | Wind** | Luminosity | Snow |
|---|---|---|---|---|---|---|---|
| 1778066606 | 12.78° C | 87% | 1017.8 hPa | 0 mm | 2.24 m/s, 127° | - | - |
| 1778065726 | 12.78° C | 88% | 1017.8 hPa | 0 mm | 1.79 m/s, 145° | - | - |
| 1778065631 | 12.78° C | 88% | 1017.8 hPa | 0 mm | 1.79 m/s, 145° | - | - |
| 1778064926 | 12.78° C | 87% | 1017.7 hPa | 0 mm | 2.24 m/s, 140° | - | - |
| 1778064762 | 12.78° C | 87% | 1017.7 hPa | 0 mm | 1.79 m/s, 145° | - | - |
| 1778064041 | 12.78° C | 86% | 1017.6 hPa | 0 mm | 1.79 m/s, 154° | - | - |
| 1778063991 | 12.78° C | 87% | 1017.7 hPa | 0 mm | 1.34 m/s, 153° | - | - |
| 1778063171 | 12.78° C | 86% | 1017.6 hPa | 0 mm | 1.79 m/s, 148° | - | - |
| 1778062211 | 12.78° C | 86% | 1017.6 hPa | 0 mm | 2.24 m/s, 156° | - | - |
| 1778061531 | 12.78° C | 86% | 1017.5 hPa | 0 mm | 1.79 m/s, 155° | - | - |
| 1778061296 | 12.78° C | 85% | 1017.4 hPa | 0 mm | 1.79 m/s, 151° | - | - |
| 1778060516 | 13.33° C | 85% | 1017.2 hPa | 0 mm | 1.34 m/s, 133° | - | - |
| 1778059942 | 12.78° C | 86% | 1017.1 hPa | 0 mm | 1.79 m/s, 165° | - | - |
| 1778059605 | 12.78° C | 86% | 1017.2 hPa | 0 mm | 1.34 m/s, 146° | - | - |
| 1778059147 | 12.78° C | 87% | 1017.1 hPa | 0 mm | 1.79 m/s, 147° | - | - |
| 1778058833 | 12.78° C | 87% | 1017 hPa | 0 mm | 1.79 m/s, 148° | - | - |
| 1778058371 | 12.78° C | 86% | 1017 hPa | 0 mm | 2.24 m/s, 145° | - | - |
| 1778058046 | 12.78° C | 86% | 1017 hPa | 0 mm | 2.24 m/s, 135° | - | - |
| 1778057171 | 13.33° C | 86% | 1016.9 hPa | 0 mm | 2.24 m/s, 124° | - | - |
| 1778056281 | 13.33° C | 86% | 1016.7 hPa | 0 mm | 2.68 m/s, 130° | - | - |
| 1778056022 | 13.33° C | 85% | 1016.7 hPa | 0 mm | 2.68 m/s, 128° | - | - |
| 1778055437 | 13.33° C | 85% | 1016.6 hPa | 0 mm | 2.24 m/s, 134° | - | - |
| 1778055147 | 13.33° C | 85% | 1016.6 hPa | 0 mm | 2.24 m/s, 142° | - | - |
| 1778054591 | 13.33° C | 85% | 1016.5 hPa | 0 mm | 2.68 m/s, 137° | - | - |
| 1778054397 | 13.33° C | 85% | 1016.4 hPa | 0 mm | 2.24 m/s, 143° | - | - |
* Rain latest hour (hover to see other rain measurements)
** Current wind speed in m/s (hover to see current wind gust speed)